Location: Waco, TX
(31.5480°N, 97.1670°W)
Time: 07:06:42
(UTC-05:00)

ISS - Pass Details

Date: 11 March 2018
Orbit: 403 x 407 km, 51.6° (Epoch: 26 June)

Event Time Altitude Azimuth Distance (km) Brightness Sun altitude
Rises 09:42:18 0° 317° (NW) 2,332 -0.5 23.8°
Reaches altitude 10° 09:44:24 10° 319° (NW) 1,466 -1.4 24.3°
Maximum altitude 09:47:40 73° 44° (NE) 425 -3.2 24.9°
Drops below altitude 10° 09:50:55 10° 130° (SE) 1,451 0.5 25.6°
Sets 09:52:59 0° 132° (SE) 2,305 1.1 26.0°
